Location: Street
(51.1247°N, 2.7429°W)
Time: 16:12:01
(UTC+00:00)

SR - Pass Details

Date: 26 November 2020
Orbit: 575 x 880 km, 66.7° (Epoch: 26 January)

Event Time Altitude Azimuth Distance (km) Brightness Sun altitude
Rises 02:20:27 0° 323° (NW) 3,088 - -49.1°
Reaches altitude 10° 02:22:54 10° 332° (NNW) 2,218 - -48.8°
Maximum altitude 02:27:35 36° 39° (NE) 1,202 - -48.2°
Drops below altitude 10° 02:32:39 10° 106° (ESE) 2,394 - -47.5°
Exits shadow 02:35:18 - 114° (ESE) 3,342 ? -47.1°
Sets 02:35:22 0° 115° (ESE) 3,367 ? -47.1°
